Pensacola, FL

4:40 AM CST on December 12, 2017 (GMT -0600)
Pensacola Regional

Weather History for KPNS - August, 2013

Change the Weather History Date:

Sunday, August 4, 2013

  Actual Average Record
Temperature  
Mean Temperature 87 °F 82 °F  
Max Temperature 95 °F 90 °F 99 °F (1951)
Min Temperature 78 °F 74 °F 70 °F (1992)
Cooling Degree Days 22 17  
Month to date cooling degree days 75 68  
Year to date cooling degree days 1532 1514  
Since 1 June cooling degree days 1090 1066  
Growing Degree Days 36 (Base 50)    
Moisture  
Dew Point 75 °F    
Average Humidity 70    
Maximum Humidity 91    
Minimum Humidity 49    
Precipitation  
Precipitation 0.01 in 0.24 in 5.34 in (2017)
Month to date precipitation 1.46 0.98  
Year to date precipitation 47.90 38.99  
Sea Level Pressure  
Sea Level Pressure 30.03 in    
Wind  
Wind Speed 5 mph (WNW)    
Max Wind Speed 22 mph    
Max Gust Speed 29 mph    
Visibility 9 miles    
Events      
T = Trace of Precipitation, MM = Missing Value Source: NWS Daily Summary

Daily Weather History Graph

Daily Weather History Graph

Search for Another Location

Airport or City:

Trip Planner

Search our weather history database for the weather conditions in past years. The results will help you decide how hot, cold, wet, or windy it might be!

Date:

Astronomy

Aug. 04, 2013 Rise Set
Actual Time 6:08 AM CDT 7:40 PM CDT
Civil Twilight 5:43 AM CDT 8:06 PM CDT
Nautical Twilight 5:12 AM CDT 8:37 PM CDT
Astronomical Twilight 4:39 AM CDT 9:09 PM CDT
Moon 4:10 AM CDT (8/4) 6:03 PM CDT (8/4)
Length of Visible Light 14h 23m
Length of Day
13h 31m
Waning Crescent, 4% of the Moon is Illuminated
Aug 4
Waning Crescent
Aug 6
New
Aug 14
First Quarter
Aug 20
Full
Aug 28
Last Quarter

Hourly Weather History & Observations

Time (CDT) Temp. Heat Index Dew Point Humidity Pressure Visibility Wind Dir Wind Speed Gust Speed Precip Events Conditions
12:53 AM 82.0 °F 90.2 °F 77.0 °F 85% 30.05 in 10.0 mi WSW 5.8 mph - N/A   Clear
1:53 AM 82.0 °F 90.2 °F 77.0 °F 85% 30.04 in 10.0 mi West 4.6 mph - N/A   Clear
2:53 AM 81.0 °F 87.9 °F 77.0 °F 88% 30.03 in 9.0 mi West 5.8 mph - N/A   Clear
3:53 AM 81.0 °F 87.9 °F 77.0 °F 88% 30.03 in 9.0 mi WNW 3.5 mph - N/A   Clear
4:53 AM 80.1 °F 85.8 °F 77.0 °F 90% 30.04 in 7.0 mi NNW 3.5 mph - N/A   Clear
5:53 AM 79.0 °F - 75.9 °F 90% 30.04 in 7.0 mi WNW 3.5 mph - N/A   Clear
6:53 AM 80.1 °F 85.4 °F 75.9 °F 87% 30.06 in 5.0 mi Calm Calm - N/A   Clear
7:53 AM 82.9 °F 90.8 °F 75.9 °F 79% 30.07 in 8.0 mi NW 4.6 mph - N/A   Clear
8:53 AM 86.0 °F 96.0 °F 75.9 °F 72% 30.08 in 10.0 mi WNW 9.2 mph - N/A   Clear
9:53 AM 89.1 °F 98.0 °F 73.9 °F 61% 30.07 in 10.0 mi NW 8.1 mph - N/A   Clear
10:53 AM 91.0 °F 99.3 °F 73.0 °F 55% 30.07 in 10.0 mi NW 10.4 mph - N/A   Clear
11:53 AM 93.0 °F 101.9 °F 73.0 °F 52% 30.06 in 9.0 mi NNW 8.1 mph - N/A   Scattered Clouds
12:53 PM 93.0 °F 101.9 °F 73.0 °F 52% 30.04 in 8.0 mi NNW 8.1 mph - N/A   Partly Cloudy
1:53 PM 93.9 °F 100.8 °F 71.1 °F 47% 30.02 in 10.0 mi NW 8.1 mph - N/A   Scattered Clouds
2:53 PM 93.9 °F 100.8 °F 71.1 °F 47% 29.99 in 10.0 mi Variable 4.6 mph - N/A   Scattered Clouds
3:53 PM 93.0 °F 106.7 °F 77.0 °F 59% 29.98 in 9.0 mi South 9.2 mph - N/A   Partly Cloudy
4:53 PM 90.0 °F 102.5 °F 77.0 °F 65% 29.97 in 9.0 mi SSW 4.6 mph - N/A   Mostly Cloudy
5:53 PM 88.0 °F 92.1 °F 69.1 °F 53% 29.99 in 10.0 mi NNW 11.5 mph 17.3 mph N/A   Scattered Clouds
6:53 PM 80.1 °F 85.1 °F 75.0 °F 85% 29.99 in 8.0 mi North 3.5 mph - 0.01 in   Scattered Clouds
7:53 PM 81.0 °F 86.2 °F 73.9 °F 79% 30.01 in 10.0 mi Calm Calm - N/A   Clear
8:53 PM 80.1 °F 84.5 °F 73.9 °F 81% 30.03 in 10.0 mi Calm Calm - N/A   Clear
9:53 PM 79.0 °F - 75.0 °F 88% 30.04 in 10.0 mi Calm Calm - N/A   Clear
10:53 PM 80.1 °F 84.5 °F 73.9 °F 81% 30.04 in 10.0 mi WNW 4.6 mph - N/A   Clear
11:53 PM 79.0 °F - 73.0 °F 82% 30.04 in 10.0 mi Calm Calm - N/A   Clear